Location: Béaulencourt
(50.0796°N, 2.8795°E)
Time: 10:00:40
(UTC+00:00)

CENTAUR R/B - Pass Details

Date: 20 January 2026
Orbit: 629 x 1552 km, 63.4° (Epoch: 19 February)

Event Time Altitude Azimuth Distance (km) Brightness Sun altitude
Rises 05:31:09 0° 205° (SSW) 3,204 5.1 -19.8°
Reaches altitude 10° 05:33:21 10° 201° (SSW) 2,378 4.4 -19.4°
Maximum altitude 05:38:43 58° 123° (ESE) 1,080 3.0 -18.6°
Drops below altitude 10° 05:45:33 10° 47° (NE) 3,000 5.5 -17.5°
Sets 05:48:37 0° 44° (NE) 4,114 6.2 -17.0°
